マクノート彗星

P/2011 P1 ( McNaught )

English version
Home page
Updated on March 15, 2022

---------------------------------------------------------------------

・ プロフィール

発見日 2011年8月1日
発見光度 18.5等
発見者 R. H. McNaught (Siding Spring)

・ 写真集

・ 軌道要素

Epoch 2012 Sept. 30.0 TT = JDT 2456200.5
T 2010 July 17.45281 TT                                 MPC
q   5.0005220            (2000.0)            P               Q
n   0.04793837     Peri.  346.79938     +0.99152333     +0.12954335
a   7.5049400      Node     5.78539     -0.10836957     +0.86700563
e   0.3337026      Incl.    5.69349     -0.07167650     +0.48116501
P  20.6
From 125 observations 2011 Aug. 1-2012 Jan. 25, mean residual 0".7.

・ 光度変化

        m1 = 7.5 + 5 logΔ + 10.0 log r

---------------------------------------------------------------------

軌道要素はM.P.E.C. 2013-B90に掲載されたものです。
光度グラフはComet for Windowsで作成したものです。

---------------------------------------------------------------------

Copyright(C) Seiichi Yoshida (comet@aerith.net). All rights reserved.